TimeEDT,TemperatureF,Dew PointF,Humidity,Sea Level PressureIn,VisibilityMPH,Wind Direction,Wind SpeedMPH,Gust SpeedMPH,PrecipitationIn,Events,Conditions,WindDirDegrees,DateUTC
12:53 AM,64.0,57.0,78,29.94,10.0,ESE,4.6,-,N/A,,Clear,120,2013-05-04 04:53:00
1:53 AM,64.9,48.9,56,29.94,10.0,ESE,6.9,-,N/A,,Clear,120,2013-05-04 05:53:00
2:53 AM,64.0,45.0,50,29.92,10.0,ESE,9.2,-,N/A,,Partly Cloudy,110,2013-05-04 06:53:00
3:53 AM,63.0,45.0,52,29.92,10.0,ESE,6.9,-,0.01,,Clear,110,2013-05-04 07:53:00
4:53 AM,63.0,45.0,52,29.91,10.0,East,9.2,-,N/A,,Mostly Cloudy,100,2013-05-04 08:53:00
5:53 AM,63.0,44.1,50,29.91,10.0,East,6.9,-,N/A,,Overcast,100,2013-05-04 09:53:00
6:53 AM,61.0,45.0,56,29.92,10.0,East,6.9,-,N/A,,Overcast,100,2013-05-04 10:53:00
7:53 AM,61.0,45.0,56,29.93,10.0,ESE,8.1,-,N/A,,Overcast,110,2013-05-04 11:53:00
8:53 AM,62.1,44.1,52,29.94,10.0,ESE,5.8,-,N/A,,Overcast,120,2013-05-04 12:53:00
9:53 AM,60.1,46.9,62,29.95,10.0,East,9.2,-,0.00,Rain,Light Rain,90,2013-05-04 13:53:00
10:53 AM,59.0,48.9,69,29.95,10.0,ESE,11.5,18.4,0.01,Rain,Light Rain,120,2013-05-04 14:53:00
11:53 AM,57.0,48.9,74,29.97,10.0,Calm,Calm,-,0.02,Rain,Light Rain,0,2013-05-04 15:53:00
12:53 PM,57.0,51.1,81,29.97,8.0,ESE,4.6,-,0.04,Rain,Light Rain,120,2013-05-04 16:53:00
1:19 PM,55.4,50.0,82,29.99,10.0,SE,3.5,-,0.01,Rain,Light Rain,130,2013-05-04 17:19:00
1:26 PM,55.4,50.0,82,29.99,10.0,East,4.6,-,0.02,Rain,Light Rain,100,2013-05-04 17:26:00
1:53 PM,55.0,51.1,86,29.99,10.0,SSW,4.6,-,0.02,Rain,Light Rain,210,2013-05-04 17:53:00
2:31 PM,53.6,51.8,94,30.00,6.0,SSW,6.9,-,0.02,Rain,Light Rain,210,2013-05-04 18:31:00
2:53 PM,53.1,51.1,93,29.99,5.0,SW,5.8,-,0.03,Rain,Light Rain,230,2013-05-04 18:53:00
3:30 PM,53.6,51.8,94,30.01,2.5,Variable,3.5,-,0.05,Rain,Heavy Rain,0,2013-05-04 19:30:00
3:38 PM,53.6,50.0,88,30.00,4.0,South,3.5,-,0.06,Rain,Light Rain,180,2013-05-04 19:38:00
3:53 PM,53.1,50.0,89,30.00,6.0,South,3.5,-,0.06,Rain,Rain,180,2013-05-04 19:53:00
4:53 PM,55.0,52.0,89,29.97,10.0,Calm,Calm,-,0.01,,Overcast,0,2013-05-04 20:53:00
5:53 PM,55.0,51.1,86,29.98,10.0,SW,3.5,-,N/A,,Overcast,220,2013-05-04 21:53:00
6:53 PM,55.9,52.0,87,29.97,10.0,WSW,3.5,-,0.00,Rain,Light Rain,240,2013-05-04 22:53:00
7:53 PM,55.0,52.0,89,29.98,8.0,Calm,Calm,-,0.01,Rain,Light Rain,0,2013-05-04 23:53:00
8:53 PM,55.0,52.0,89,29.99,6.0,Calm,Calm,-,0.05,Rain,Rain,0,2013-05-05 00:53:00
9:53 PM,55.0,53.1,93,30.00,5.0,Calm,Calm,-,0.08,Rain,Rain,0,2013-05-05 01:53:00
10:03 PM,55.4,53.6,94,30.01,5.0,NE,4.6,-,0.02,Rain,Rain,50,2013-05-05 02:03:00
10:53 PM,54.0,53.1,97,29.99,5.0,NNE,4.6,-,0.08,Rain,Light Rain,30,2013-05-05 02:53:00
11:07 PM,53.6,53.6,100,30.00,5.0,NE,4.6,-,0.02,Rain,Rain,40,2013-05-05 03:07:00
11:44 PM,53.6,53.6,100,29.99,6.0,NE,6.9,-,0.06,Rain,Light Rain,40,2013-05-05 03:44:00
11:53 PM,54.0,53.1,97,29.99,7.0,NE,8.1,-,0.06,Rain,Light Rain,40,2013-05-05 03:53:00